M I D A S
Marine Information and Data Acquisition System
Tripno 1127 of the Zeeleeuw from 2006-06-19 06:36:06 to 2006-06-19 17:32:43
Back to CruiseResearch ActivitiesStationsMapUnderway DataData graphs

EquipmentUnitsComment
TimeDGPSUTC
LatitudeDGPSDM.mWGS84
LongitudeDGPSDM.mWGS84
HeadingGyrodeg 
SOGDGPSknotsSpeed over ground
COGDGPSdegCourse over ground
DepthEcho soundermeters200 kHz
Missing or incorrect values are displayed as -999
Navigation data collected by the RV Zeeleeuw from 2006-06-19 06:36:46 to 2006-06-19 17:43:01
                                                                                    Next 1000 lines
Time Latitude Longitude Heading SOG COG Depth
2006-06-19 06:36:56 51°13.602 2°56.098 111.1 0.4 293 8.3
2006-06-19 06:37:02 51°13.602 2°56.096 110.6 0.8 286 8.4
2006-06-19 06:37:06 51°13.602 2°56.094 110.4 1.1 291 8.5
2006-06-19 06:37:11 51°13.603 2°56.091 110.6 1.6 291 8.4
2006-06-19 06:37:16 51°13.605 2°56.086 111.2 2 294 8.6
2006-06-19 06:37:22 51°13.606 2°56.08 112.2 2.4 292 -999
2006-06-19 06:37:27 51°13.608 2°56.075 112.8 2.6 294 -999
2006-06-19 06:37:32 51°13.609 2°56.069 112.8 2.9 294 -999
2006-06-19 06:37:37 51°13.611 2°56.062 112.4 3.1 292 -999
2006-06-19 06:37:42 51°13.613 2°56.056 111.8 3.2 293 -999
2006-06-19 06:37:47 51°13.615 2°56.049 111.4 3.3 291 -999
2006-06-19 06:37:52 51°13.616 2°56.042 111.1 3.4 290 -999
2006-06-19 06:37:57 51°13.618 2°56.034 111.2 3.6 290 -999
2006-06-19 06:38:02 51°13.62 2°56.026 112.2 3.8 291 -999
2006-06-19 06:38:07 51°13.622 2°56.018 113.5 3.8 290 -999
2006-06-19 06:38:12 51°13.624 2°56.01 114.1 3.8 292 -999
2006-06-19 06:38:17 51°13.626 2°56.002 114.7 3.9 291 -999
2006-06-19 06:38:22 51°13.628 2°55.994 115.4 3.9 292 -999
2006-06-19 06:38:26 51°13.629 2°55.988 116.1 3.9 292 -999
2006-06-19 06:38:32 51°13.632 2°55.979 117 3.9 294 -999
2006-06-19 06:38:37 51°13.635 2°55.971 117.7 4 296 -999
2006-06-19 06:38:42 51°13.637 2°55.962 118.3 4 297 -999
2006-06-19 06:38:47 51°13.64 2°55.954 118.5 4.1 296 -999
2006-06-19 06:38:52 51°13.642 2°55.946 118.6 4.2 296 -999
2006-06-19 06:38:57 51°13.645 2°55.937 118.4 4.3 296 -999
2006-06-19 06:39:02 51°13.647 2°55.929 118 4.3 296 -999
2006-06-19 06:39:07 51°13.65 2°55.92 117.6 4.3 295 -999
2006-06-19 06:39:12 51°13.652 2°55.911 117.4 4.3 295 -999
2006-06-19 06:39:17 51°13.654 2°55.902 117.4 4.3 294 -999
2006-06-19 06:39:22 51°13.657 2°55.893 117.7 4.4 294 -999
2006-06-19 06:39:27 51°13.659 2°55.884 118.4 4.5 294 -999
2006-06-19 06:39:32 51°13.662 2°55.875 119.1 4.6 295 -999
2006-06-19 06:39:37 51°13.665 2°55.866 120.3 4.6 296 -999
2006-06-19 06:39:42 51°13.668 2°55.857 121.2 4.6 297 -999
2006-06-19 06:39:47 51°13.671 2°55.848 122.1 4.6 298 -999
2006-06-19 06:39:52 51°13.674 2°55.839 122.8 4.7 299 -999
2006-06-19 06:39:57 51°13.677 2°55.83 123.4 4.7 301 -999
2006-06-19 06:40:02 51°13.681 2°55.821 123.9 4.9 302 -999
2006-06-19 06:40:07 51°13.684 2°55.812 124.3 4.8 303 -999
2006-06-19 06:40:12 51°13.687 2°55.803 124.5 4.7 303 -999
2006-06-19 06:40:17 51°13.691 2°55.795 124.4 4.6 303 -999
2006-06-19 06:40:22 51°13.694 2°55.786 123.8 4.5 303 -999
2006-06-19 06:40:26 51°13.697 2°55.78 122.8 4.4 303 -999
2006-06-19 06:40:32 51°13.701 2°55.77 121.6 4.3 302 -999
2006-06-19 06:40:37 51°13.704 2°55.763 120 4.1 301 -999
2006-06-19 06:40:42 51°13.706 2°55.755 118.4 3.9 299 -999
2006-06-19 06:40:46 51°13.708 2°55.75 116.6 3.7 298 -999
2006-06-19 06:40:52 51°13.711 2°55.742 114.6 3.5 297 -999
2006-06-19 06:40:57 51°13.713 2°55.736 112.6 3.3 296 14.8
2006-06-19 06:41:02 51°13.714 2°55.731 111.1 2.8 294 14.9
2006-06-19 06:41:06 51°13.715 2°55.728 109.2 2.3 293 14.6
2006-06-19 06:41:10 51°13.716 2°55.725 106.1 1.6 294 14.4
2006-06-19 06:41:16 51°13.717 2°55.722 102 1.2 295 13.9
2006-06-19 06:41:22 51°13.717 2°55.721 97.2 0.8 299 13.9
2006-06-19 06:41:26 51°13.718 2°55.72 92.5 0.5 301 13.8
2006-06-19 06:41:31 51°13.718 2°55.72 87.8 0.4 335 13.8
2006-06-19 06:41:36 51°13.719 2°55.72 83 0.4 1 13.8
2006-06-19 06:41:41 51°13.72 2°55.721 78 0.5 26 14
2006-06-19 06:41:46 51°13.72 2°55.722 72.6 0.7 35 13.9
2006-06-19 06:41:52 51°13.721 2°55.723 67.2 0.8 37 13.9
2006-06-19 06:41:56 51°13.722 2°55.724 61.6 1 37 13.8
2006-06-19 06:42:00 51°13.723 2°55.725 56.1 0.9 29 13.7
2006-06-19 06:42:06 51°13.724 2°55.726 52.2 0.9 28 13.7
2006-06-19 06:42:09 51°13.725 2°55.726 49 0.7 17 13.7
2006-06-19 06:42:16 51°13.725 2°55.727 46.3 0.4 15 13.6
2006-06-19 06:42:21 51°13.725 2°55.726 43.5 0.2 327 13.7
2006-06-19 06:42:26 51°13.725 2°55.726 40.5 0.2 258 13.5
2006-06-19 06:42:32 51°13.724 2°55.726 38 0.4 233 13.5
2006-06-19 06:42:36 51°13.723 2°55.725 36 0.5 221 13.6
2006-06-19 06:42:41 51°13.722 2°55.724 34.3 0.9 218 13.6
2006-06-19 06:42:46 51°13.721 2°55.723 32.6 1.2 212 13.7
2006-06-19 06:42:51 51°13.719 2°55.721 31.1 1.5 213 -999
2006-06-19 06:42:57 51°13.716 2°55.719 29.6 1.4 209 -999
2006-06-19 06:43:02 51°13.715 2°55.718 28.3 1.2 212 -999
2006-06-19 06:43:07 51°13.714 2°55.717 27.5 0.9 209 -999
2006-06-19 06:43:12 51°13.714 2°55.716 26 0.4 230 -999
2006-06-19 06:43:17 51°13.715 2°55.717 23.1 0.3 10 -999
2006-06-19 06:43:22 51°13.717 2°55.716 18.1 1.3 6 -999
2006-06-19 06:43:26 51°13.719 2°55.717 12.3 1.8 5 -999
2006-06-19 06:43:32 51°13.724 2°55.716 5.8 2.6 358 -999
2006-06-19 06:43:37 51°13.729 2°55.715 358.6 3.2 354 -999
2006-06-19 06:43:42 51°13.734 2°55.713 352.2 3.9 346 13
2006-06-19 06:43:46 51°13.74 2°55.71 347.9 4.4 343 13
2006-06-19 06:43:50 51°13.745 2°55.707 344.4 5.2 339 12.6
2006-06-19 06:43:56 51°13.754 2°55.7 340.9 5.7 337 12.6
2006-06-19 06:44:01 51°13.762 2°55.694 339 6.1 335 12.8
2006-06-19 06:44:06 51°13.77 2°55.688 338.9 6.7 335 12.8
2006-06-19 06:44:12 51°13.782 2°55.679 339.4 7.2 335 13
2006-06-19 06:44:16 51°13.789 2°55.674 338.9 7.4 334 13
2006-06-19 06:44:21 51°13.799 2°55.666 338.2 7.7 334 13.1
2006-06-19 06:44:26 51°13.809 2°55.658 337.8 8 334 13.1
2006-06-19 06:44:32 51°13.821 2°55.648 337.5 8.3 334 13.2
2006-06-19 06:44:36 51°13.83 2°55.641 337.2 8.5 334 13.3
2006-06-19 06:44:40 51°13.838 2°55.634 337.4 8.6 334 13
2006-06-19 06:44:46 51°13.851 2°55.625 337.9 8.6 334 13
2006-06-19 06:44:52 51°13.864 2°55.614 338.1 8.6 334 13
2006-06-19 06:44:56 51°13.873 2°55.608 338.2 8.6 334 13.1
2006-06-19 06:45:02 51°13.885 2°55.598 338.7 8.6 334 13.1
2006-06-19 06:45:06 51°13.894 2°55.591 338.9 8.6 334 13.4
2006-06-19 06:45:10 51°13.902 2°55.584 338.7 8.5 334 13.4
2006-06-19 06:45:16 51°13.915 2°55.574 338.6 8.5 334 13.5
2006-06-19 06:45:21 51°13.926 2°55.567 339 8.4 335 13.3
2006-06-19 06:45:26 51°13.936 2°55.56 340.2 8.4 337 12.9
2006-06-19 06:45:31 51°13.947 2°55.553 341.1 8.4 339 13.4
2006-06-19 06:45:36 51°13.958 2°55.547 341.5 8.4 339 13.3
2006-06-19 06:45:41 51°13.969 2°55.54 341.7 8.5 339 13.3
2006-06-19 06:45:46 51°13.98 2°55.533 341.7 8.6 339 13.3
2006-06-19 06:45:49 51°13.987 2°55.529 340.5 8.6 337 13.3
2006-06-19 06:45:56 51°14.002 2°55.518 339.2 8.5 336 13.4
2006-06-19 06:46:01 51°14.012 2°55.511 338 8.3 336 13.3
2006-06-19 06:46:06 51°14.022 2°55.503 338 8 336 13.2
2006-06-19 06:46:10 51°14.03 2°55.498 338.2 7.7 336 13.1
2006-06-19 06:46:16 51°14.041 2°55.489 338.3 7.6 335 13.1
2006-06-19 06:46:21 51°14.051 2°55.482 338.3 7.5 336 13.2
2006-06-19 06:46:26 51°14.06 2°55.476 338.7 7.5 336 13.2
2006-06-19 06:46:32 51°14.071 2°55.468 339.3 7.4 336 13.2
2006-06-19 06:46:36 51°14.079 2°55.463 339.8 7.4 337 13.2
2006-06-19 06:46:41 51°14.088 2°55.457 340.2 7.3 337 13.2
2006-06-19 06:46:46 51°14.098 2°55.45 340.3 7.3 337 13.2
2006-06-19 06:46:52 51°14.109 2°55.442 340.2 7.5 336 13.2
2006-06-19 06:46:56 51°14.117 2°55.436 339.4 7.7 335 13.2
2006-06-19 06:47:01 51°14.127 2°55.428 338.4 7.9 334 13.2
2006-06-19 06:47:06 51°14.137 2°55.42 338.1 8 334 13.3
2006-06-19 06:47:12 51°14.149 2°55.411 338 8 334 13.1
2006-06-19 06:47:16 51°14.157 2°55.404 337.8 8.2 334 13.1
2006-06-19 06:47:21 51°14.168 2°55.396 337.5 8.3 333 13.1
2006-06-19 06:47:26 51°14.178 2°55.387 336.5 8.3 332 13.1
2006-06-19 06:47:29 51°14.184 2°55.382 334.5 8.4 330 13.1
2006-06-19 06:47:37 51°14.199 2°55.365 332.8 8.4 328 13.1
2006-06-19 06:47:42 51°14.209 2°55.355 330.7 8.5 326 13.1
2006-06-19 06:47:46 51°14.216 2°55.346 328.5 8.5 325 13.1
2006-06-19 06:47:52 51°14.227 2°55.332 326.3 8.5 322 13
2006-06-19 06:47:56 51°14.235 2°55.322 324.5 8.5 321 13.1
2006-06-19 06:48:02 51°14.245 2°55.307 322.7 8.5 318 13.1
2006-06-19 06:48:06 51°14.252 2°55.297 320.1 8.6 316 13.1
2006-06-19 06:48:12 51°14.262 2°55.28 318.3 8.7 314 13.2
2006-06-19 06:48:16 51°14.269 2°55.269 317 8.8 314 13
2006-06-19 06:48:21 51°14.277 2°55.254 316.3 9 313 13.1
2006-06-19 06:48:26 51°14.286 2°55.24 316 9.1 313 13.1
2006-06-19 06:48:32 51°14.296 2°55.221 315.5 9.2 312 13.2
2006-06-19 06:48:36 51°14.303 2°55.209 313.9 9.3 311 13.2
2006-06-19 06:48:41 51°14.311 2°55.192 312 9.4 309 13.3
2006-06-19 06:48:46 51°14.319 2°55.175 310.6 9.6 308 13.4
2006-06-19 06:48:51 51°14.327 2°55.158 309.9 9.8 307 13.2
2006-06-19 06:48:56 51°14.335 2°55.14 309.3 9.9 307 13.2
2006-06-19 06:49:02 51°14.345 2°55.119 309 10 306 13.1
2006-06-19 06:49:06 51°14.351 2°55.104 308.5 10 305 13.2
2006-06-19 06:49:12 51°14.361 2°55.082 307.6 10.1 305 13.1
2006-06-19 06:49:16 51°14.367 2°55.067 306.3 10.1 304 13.3
2006-06-19 06:49:21 51°14.375 2°55.048 305.5 10.2 303 13.4
2006-06-19 06:49:26 51°14.382 2°55.029 304.5 10.2 303 13.3
2006-06-19 06:49:32 51°14.392 2°55.007 303.7 10.2 303 13
2006-06-19 06:49:36 51°14.399 2°54.993 304.3 10.2 307 13.1
2006-06-19 06:49:41 51°14.408 2°54.975 305.7 10.2 309 13.1
2006-06-19 06:49:46 51°14.417 2°54.958 306.5 10.2 310 13.1
2006-06-19 06:49:51 51°14.426 2°54.941 306.8 10.1 310 13
2006-06-19 06:49:56 51°14.435 2°54.924 306.8 10.1 310 13.3
2006-06-19 06:50:01 51°14.444 2°54.907 306.5 10 310 13.5
2006-06-19 06:50:06 51°14.453 2°54.89 306 10 310 13.2
2006-06-19 06:50:11 51°14.462 2°54.872 304.8 10.1 308 13
2006-06-19 06:50:15 51°14.468 2°54.858 303.9 10.2 307 12.9
2006-06-19 06:50:22 51°14.479 2°54.831 301.9 10.2 304 12.7
2006-06-19 06:50:26 51°14.485 2°54.816 300.2 10.4 303 13.1
2006-06-19 06:50:30 51°14.491 2°54.799 298 10.6 300 12.7
2006-06-19 06:50:36 51°14.5 2°54.775 296.8 10.6 300 13
2006-06-19 06:50:42 51°14.508 2°54.749 295.7 10.9 297 12.5
2006-06-19 06:50:46 51°14.514 2°54.732 294.6 11 297 12.6
2006-06-19 06:50:51 51°14.521 2°54.71 294.1 11.1 297 12.7
2006-06-19 06:50:56 51°14.528 2°54.687 293.4 11.2 296 12.6
2006-06-19 06:51:01 51°14.534 2°54.665 292.8 11.3 295 12.6
2006-06-19 06:51:06 51°14.541 2°54.642 292.2 11.4 294 12.6
2006-06-19 06:51:12 51°14.549 2°54.614 291.7 11.4 295 12.6
2006-06-19 06:51:16 51°14.554 2°54.596 291.8 11.5 295 12.6
2006-06-19 06:51:21 51°14.562 2°54.573 292.3 11.5 296 13.1
2006-06-19 06:51:26 51°14.569 2°54.55 292.7 11.5 296 12.7
2006-06-19 06:51:31 51°14.576 2°54.527 292.9 11.5 296 12.6
2006-06-19 06:51:36 51°14.584 2°54.505 292.8 11.4 296 12.6
2006-06-19 06:51:41 51°14.591 2°54.482 292.6 11.5 296 12.6
2006-06-19 06:51:46 51°14.598 2°54.459 292.3 11.4 296 12.6
2006-06-19 06:51:52 51°14.606 2°54.432 292.2 11.4 296 12.6
2006-06-19 06:51:56 51°14.611 2°54.414 292.3 11.4 296 12.6
2006-06-19 06:52:00 51°14.617 2°54.396 292.5 11.4 296 12.7
2006-06-19 06:52:06 51°14.626 2°54.369 292.5 11.4 296 12.9
2006-06-19 06:52:09 51°14.63 2°54.356 292.9 11.4 298 12.6
2006-06-19 06:52:16 51°14.641 2°54.325 293.9 11.4 298 12.5
2006-06-19 06:52:22 51°14.65 2°54.298 294.5 11.4 299 12.6
2006-06-19 06:52:26 51°14.656 2°54.28 294.7 11.4 298 12.9
2006-06-19 06:52:30 51°14.662 2°54.262 294.8 11.5 298 12.8
2006-06-19 06:52:36 51°14.671 2°54.235 295 11.5 298 12.6
2006-06-19 06:52:42 51°14.68 2°54.208 295.1 11.6 297 12.6
2006-06-19 06:52:45 51°14.684 2°54.194 294.7 11.6 297 12.7
2006-06-19 06:52:52 51°14.694 2°54.162 294.1 11.6 297 12.6
2006-06-19 06:52:56 51°14.7 2°54.144 294 11.7 297 12.5
2006-06-19 06:53:01 51°14.708 2°54.12 294.2 11.7 298 12.5
2006-06-19 06:53:06 51°14.715 2°54.098 294.3 11.7 298 12.5
2006-06-19 06:53:11 51°14.723 2°54.075 294.2 11.7 298 12.5
2006-06-19 06:53:16 51°14.731 2°54.052 294.1 11.7 298 12.5
2006-06-19 06:53:21 51°14.739 2°54.03 294 11.6 299 12.5
2006-06-19 06:53:26 51°14.747 2°54.007 294.5 11.6 299 12.4
2006-06-19 06:53:32 51°14.756 2°53.98 294.6 11.6 298 12.4
2006-06-19 06:53:36 51°14.762 2°53.962 294.6 11.6 298 12.4
2006-06-19 06:53:42 51°14.77 2°53.935 294 11.5 296 12.3
2006-06-19 06:53:46 51°14.775 2°53.916 292.9 11.5 295 12.3
2006-06-19 06:53:51 51°14.782 2°53.893 292.4 11.6 295 12.3
2006-06-19 06:53:56 51°14.789 2°53.87 292.5 11.5 294 12.1
2006-06-19 06:54:01 51°14.795 2°53.846 292.3 11.6 294 12.1
2006-06-19 06:54:06 51°14.801 2°53.823 291.9 11.6 293 12.1
2006-06-19 06:54:12 51°14.808 2°53.794 291.1 11.6 291 12
2006-06-19 06:54:16 51°14.813 2°53.775 290.1 11.6 291 12
2006-06-19 06:54:22 51°14.819 2°53.746 289.6 11.6 291 12
2006-06-19 06:54:25 51°14.823 2°53.732 289.3 11.6 290 11.9
2006-06-19 06:54:30 51°14.828 2°53.708 288.9 11.6 290 12
2006-06-19 06:54:36 51°14.835 2°53.679 288.8 11.6 290 12
2006-06-19 06:54:42 51°14.842 2°53.65 288.9 11.6 290 12
2006-06-19 06:54:46 51°14.846 2°53.631 289.1 11.7 291 12
2006-06-19 06:54:50 51°14.851 2°53.612 289.2 11.6 291 12.1
2006-06-19 06:54:56 51°14.858 2°53.583 289.8 11.6 292 12.1
2006-06-19 06:55:02 51°14.865 2°53.554 290 11.6 290 12.1
2006-06-19 06:55:06 51°14.869 2°53.535 289.4 11.6 290 12.2
2006-06-19 06:55:09 51°14.872 2°53.52 288.3 11.6 288 12.2
2006-06-19 06:55:16 51°14.879 2°53.487 287.4 11.5 288 12.2
2006-06-19 06:55:22 51°14.884 2°53.457 286.8 11.5 288 12.3
2006-06-19 06:55:26 51°14.888 2°53.438 286.1 11.5 286 12.4
2006-06-19 06:55:32 51°14.893 2°53.409 285.8 11.5 287 12.4
2006-06-19 06:55:36 51°14.897 2°53.389 285.9 11.5 287 12.3
2006-06-19 06:55:41 51°14.902 2°53.365 286.3 11.5 287 12.5
2006-06-19 06:55:46 51°14.906 2°53.34 286.6 11.5 287 12.4
2006-06-19 06:55:52 51°14.911 2°53.311 285.9 11.6 286 12.4
2006-06-19 06:55:56 51°14.914 2°53.291 285.2 11.6 285 12.6
2006-06-19 06:56:01 51°14.918 2°53.266 284.2 11.6 284 12.7
2006-06-19 06:56:06 51°14.921 2°53.241 283 11.6 283 12.6
2006-06-19 06:56:12 51°14.925 2°53.211 282.2 11.6 282 12.6
2006-06-19 06:56:16 51°14.928 2°53.192 281.7 11.5 282 12.7
2006-06-19 06:56:21 51°14.931 2°53.167 281.1 11.5 281 12.7
2006-06-19 06:56:26 51°14.934 2°53.142 280.6 11.5 281 12.8
2006-06-19 06:56:32 51°14.938 2°53.112 280.4 11.5 281 12.8
2006-06-19 06:56:36 51°14.94 2°53.092 280.3 11.5 281 12.8
2006-06-19 06:56:41 51°14.944 2°53.067 280.8 11.5 283 12.8
2006-06-19 06:56:46 51°14.948 2°53.042 281.7 11.5 284 12.9
2006-06-19 06:56:50 51°14.951 2°53.023 282.4 11.5 284 12.8
2006-06-19 06:56:56 51°14.956 2°52.993 283.3 11.5 286 12.8
2006-06-19 06:57:01 51°14.96 2°52.969 284.4 11.5 286 12.9
2006-06-19 06:57:06 51°14.965 2°52.944 284.7 11.5 286 12.9
2006-06-19 06:57:10 51°14.969 2°52.925 285.2 11.5 287 12.9
2006-06-19 06:57:16 51°14.974 2°52.896 285.3 11.5 287 12.9
2006-06-19 06:57:21 51°14.979 2°52.871 285.5 11.4 286 13
2006-06-19 06:57:26 51°14.982 2°52.847 284.5 11.4 285 12.9
2006-06-19 06:57:32 51°14.987 2°52.818 283.8 11.4 285 13.1
2006-06-19 06:57:36 51°14.99 2°52.799 283.5 11.4 284 13.2
2006-06-19 06:57:41 51°14.994 2°52.774 283 11.4 284 13.1
2006-06-19 06:57:46 51°14.998 2°52.75 282.3 11.3 283 13.3
2006-06-19 06:57:50 51°15 2°52.73 281.6 11.3 283 13.2
2006-06-19 06:57:56 51°15.004 2°52.701 281.4 11.3 282 13.2
2006-06-19 06:58:01 51°15.007 2°52.676 280.6 11.3 281 13.1
2006-06-19 06:58:06 51°15.01 2°52.652 279.6 11.2 281 13.3
2006-06-19 06:58:12 51°15.013 2°52.623 279 11.2 280 13.1
2006-06-19 06:58:16 51°15.015 2°52.603 278.8 11.3 280 13.1
2006-06-19 06:58:21 51°15.018 2°52.578 278.7 11.2 280 13.2
2006-06-19 06:58:26 51°15.021 2°52.554 278.7 11.2 280 13.2
2006-06-19 06:58:32 51°15.024 2°52.525 278.6 11.2 280 13.2
2006-06-19 06:58:36 51°15.026 2°52.505 278.5 11.2 280 13.2
2006-06-19 06:58:41 51°15.028 2°52.481 278.5 11.2 279 13.2
2006-06-19 06:58:46 51°15.031 2°52.456 278.4 11.2 279 13.2
2006-06-19 06:58:50 51°15.033 2°52.437 278.1 11.2 279 13.3
2006-06-19 06:58:56 51°15.036 2°52.407 278.1 11.3 279 13
2006-06-19 06:59:01 51°15.039 2°52.383 278.1 11.3 279 13.1
2006-06-19 06:59:06 51°15.041 2°52.358 278 11.3 279 13
2006-06-19 06:59:11 51°15.044 2°52.334 278 11.3 280 13.1
2006-06-19 06:59:16 51°15.046 2°52.309 278.4 11.3 280 13.2
2006-06-19 06:59:21 51°15.049 2°52.284 278.5 11.3 279 13.1
2006-06-19 06:59:27 51°15.052 2°52.255 278.4 11.3 279 13.2
2006-06-19 06:59:30 51°15.053 2°52.24 278.3 11.2 278 13.2
2006-06-19 06:59:36 51°15.056 2°52.211 278.2 11.3 279 13.2
2006-06-19 06:59:41 51°15.058 2°52.186 278.6 11.3 279 13.3
2006-06-19 06:59:46 51°15.062 2°52.161 279.3 11.4 280 13.3
2006-06-19 06:59:52 51°15.066 2°52.132 280.1 11.3 282 13.3
2006-06-19 06:59:56 51°15.069 2°52.112 281.4 11.4 283 13.4
2006-06-19 07:00:01 51°15.073 2°52.088 282.4 11.4 284 13.5
2006-06-19 07:00:06 51°15.076 2°52.064 282.7 11.4 283 13.6
2006-06-19 07:00:11 51°15.079 2°52.039 281.9 11.3 281 13.6
2006-06-19 07:00:16 51°15.082 2°52.015 279.3 11.2 278 13.6
2006-06-19 07:00:21 51°15.083 2°51.99 276.6 11.1 277 13.7
2006-06-19 07:00:26 51°15.085 2°51.966 274.9 11.1 275 13.7
2006-06-19 07:00:32 51°15.085 2°51.937 273 11 274 13.8
2006-06-19 07:00:36 51°15.085 2°51.917 271.1 11 271 13.8
2006-06-19 07:00:41 51°15.085 2°51.893 270 11 269 13.9
2006-06-19 07:00:46 51°15.085 2°51.869 269.2 11 269 14
2006-06-19 07:00:50 51°15.085 2°51.85 268.5 10.9 268 14.1
2006-06-19 07:00:56 51°15.084 2°51.821 268.2 11 268 14.4
2006-06-19 07:01:01 51°15.083 2°51.796 267.7 11 267 14.1
2006-06-19 07:01:06 51°15.082 2°51.772 267.2 11 267 14
2006-06-19 07:01:10 51°15.081 2°51.753 266.9 11 267 14.1
2006-06-19 07:01:17 51°15.081 2°51.719 267 11 268 14.1
2006-06-19 07:01:21 51°15.08 2°51.699 267.5 11 268 14.1
2006-06-19 07:01:26 51°15.08 2°51.675 268 11 269 14.1
2006-06-19 07:01:32 51°15.08 2°51.646 268.6 11.1 269 14.2
2006-06-19 07:01:36 51°15.08 2°51.626 269.7 11 271 14.2
2006-06-19 07:01:41 51°15.081 2°51.601 271.6 11.1 274 14.2
2006-06-19 07:01:46 51°15.083 2°51.577 273.5 11.1 275 14.2
2006-06-19 07:01:50 51°15.084 2°51.557 274.8 11.2 276 14.3
2006-06-19 07:01:56 51°15.087 2°51.528 275.8 11.2 277 14.3
2006-06-19 07:02:01 51°15.089 2°51.503 276.7 11.2 278 14.3
2006-06-19 07:02:06 51°15.092 2°51.479 277.2 11.2 279 14.3
2006-06-19 07:02:12 51°15.095 2°51.449 277.9 11.2 280 14.4
2006-06-19 07:02:16 51°15.097 2°51.43 278.3 11.2 280 14.4
2006-06-19 07:02:21 51°15.1 2°51.405 279.2 11.2 281 14.5
2006-06-19 07:02:26 51°15.103 2°51.381 280.1 11.3 282 14.4
2006-06-19 07:02:31 51°15.107 2°51.356 280.7 11.3 282 14.4
2006-06-19 07:02:36 51°15.111 2°51.332 281.3 11.3 283 14.5
2006-06-19 07:02:41 51°15.114 2°51.308 281.7 11.3 283 14.6
2006-06-19 07:02:46 51°15.117 2°51.283 281.9 11.3 282 14.5
2006-06-19 07:02:50 51°15.12 2°51.264 281.4 11.3 282 14.6
2006-06-19 07:02:56 51°15.123 2°51.234 280.8 11.3 281 14.6
2006-06-19 07:03:01 51°15.126 2°51.209 279.8 11.3 280 14.6
2006-06-19 07:03:06 51°15.129 2°51.185 279.2 11.3 280 14.6
2006-06-19 07:03:12 51°15.133 2°51.156 279.7 11.3 281 14.6
2006-06-19 07:03:16 51°15.135 2°51.136 279.6 11.3 280 14.7
2006-06-19 07:03:21 51°15.138 2°51.111 279.4 11.3 280 14.6
2006-06-19 07:03:25 51°15.14 2°51.092 279.4 11.3 280 14.7
2006-06-19 07:03:30 51°15.143 2°51.067 279.4 11.4 280 14.7
2006-06-19 07:03:36 51°15.147 2°51.038 279.6 11.4 282 14.7
2006-06-19 07:03:41 51°15.15 2°51.013 280.6 11.4 283 14.7
2006-06-19 07:03:46 51°15.154 2°50.989 282.4 11.4 285 14.8
2006-06-19 07:03:52 51°15.16 2°50.96 284.9 11.5 288 14.8
2006-06-19 07:03:56 51°15.165 2°50.941 287.4 11.5 290 14.8
2006-06-19 07:04:01 51°15.171 2°50.917 289.4 11.6 292 14.8
2006-06-19 07:04:06 51°15.178 2°50.894 291 11.6 294 14.9
2006-06-19 07:04:11 51°15.185 2°50.87 292.2 11.7 295 14.9
2006-06-19 07:04:16 51°15.192 2°50.847 293.2 11.7 296 14.9
2006-06-19 07:04:21 51°15.199 2°50.824 293.9 11.7 296 15
2006-06-19 07:04:26 51°15.206 2°50.801 294 11.7 295 14.9
2006-06-19 07:04:30 51°15.211 2°50.782 293.2 11.6 294 14.9
2006-06-19 07:04:36 51°15.219 2°50.754 292.7 11.7 294 15
2006-06-19 07:04:40 51°15.224 2°50.735 292.6 11.6 294 15
2006-06-19 07:04:46 51°15.232 2°50.707 292.6 11.7 294 15.1
2006-06-19 07:04:52 51°15.24 2°50.679 292.6 11.6 294 15.1
2006-06-19 07:04:56 51°15.245 2°50.66 292.1 11.6 292 15.1
2006-06-19 07:05:02 51°15.252 2°50.631 291.3 11.6 291 15.1
2006-06-19 07:05:06 51°15.257 2°50.612 290.6 11.6 291 15.1
2006-06-19 07:05:12 51°15.264 2°50.584 290.5 11.6 291 15.1
2006-06-19 07:05:16 51°15.269 2°50.565 290.5 11.6 291 15.1
2006-06-19 07:05:21 51°15.275 2°50.541 290.3 11.5 291 15.2
2006-06-19 07:05:26 51°15.28 2°50.517 290 11.6 291 15.2
2006-06-19 07:05:32 51°15.287 2°50.489 289.9 11.6 291 15.2
2006-06-19 07:05:36 51°15.292 2°50.47 289.7 11.6 291 15.2
2006-06-19 07:05:41 51°15.297 2°50.445 289.5 11.6 290 15.1
2006-06-19 07:05:46 51°15.303 2°50.422 289.1 11.6 290 15.2
2006-06-19 07:05:50 51°15.308 2°50.403 288.7 11.5 290 15.2
2006-06-19 07:05:56 51°15.314 2°50.374 288.3 11.6 290 15.2
2006-06-19 07:06:01 51°15.32 2°50.35 288.3 11.6 290 15.3
2006-06-19 07:06:06 51°15.325 2°50.326 288.3 11.5 290 15.2
2006-06-19 07:06:11 51°15.331 2°50.302 288.8 11.6 291 15.2
2006-06-19 07:06:16 51°15.337 2°50.278 289.3 11.6 291 15.2
2006-06-19 07:06:21 51°15.344 2°50.255 290.1 11.6 293 15.2
2006-06-19 07:06:26 51°15.35 2°50.231 291 11.6 293 15.2
2006-06-19 07:06:32 51°15.358 2°50.203 291.5 11.6 294 15.2
2006-06-19 07:06:36 51°15.363 2°50.184 292 11.7 294 15.2
2006-06-19 07:06:42 51°15.372 2°50.156 292.6 11.6 295 15.2
2006-06-19 07:06:45 51°15.376 2°50.142 292.8 11.6 295 15.2
2006-06-19 07:06:50 51°15.382 2°50.119 292.6 11.6 294 15.2
2006-06-19 07:06:56 51°15.39 2°50.091 292.1 11.5 294 15.2
2006-06-19 07:07:00 51°15.395 2°50.072 291.4 11.5 293 15.2
2006-06-19 07:07:06 51°15.402 2°50.044 290.5 11.5 293 15.2
2006-06-19 07:07:11 51°15.408 2°50.021 289.9 11.4 292 15.3
2006-06-19 07:07:16 51°15.414 2°49.997 289.5 11.5 291 15.3
2006-06-19 07:07:21 51°15.42 2°49.973 288.8 11.4 291 15.2
2006-06-19 07:07:26 51°15.425 2°49.95 288.3 11.4 290 15.3
2006-06-19 07:07:32 51°15.432 2°49.922 288.3 11.5 291 15.3
2006-06-19 07:07:36 51°15.436 2°49.903 288.9 11.5 290 15.4
2006-06-19 07:07:41 51°15.442 2°49.879 288.9 11.5 290 15.3
2006-06-19 07:07:46 51°15.448 2°49.855 288.9 11.5 290 15.3
2006-06-19 07:07:50 51°15.452 2°49.836 289.4 11.5 291 15.4
2006-06-19 07:07:56 51°15.46 2°49.808 290.1 11.6 291 15.3
2006-06-19 07:08:01 51°15.466 2°49.784 290.7 11.7 291 15.4
2006-06-19 07:08:06 51°15.472 2°49.76 290.8 11.7 291 15.4
2006-06-19 07:08:11 51°15.478 2°49.736 290.8 11.7 292 15.4
2006-06-19 07:08:16 51°15.484 2°49.712 291 11.7 292 15.4
2006-06-19 07:08:21 51°15.49 2°49.688 290.5 11.7 292 15.4
2006-06-19 07:08:27 51°15.498 2°49.66 290.6 11.6 293 15.5
2006-06-19 07:08:30 51°15.501 2°49.646 290.7 11.6 291 15.4
2006-06-19 07:08:36 51°15.508 2°49.617 290.3 11.5 291 15.5
2006-06-19 07:08:41 51°15.513 2°49.593 289.2 11.5 290 15.4
2006-06-19 07:08:46 51°15.518 2°49.569 288.8 11.5 289 15.5
2006-06-19 07:08:51 51°15.524 2°49.545 289 11.5 290 15.5
2006-06-19 07:08:56 51°15.529 2°49.521 289.3 11.5 290 15.5
2006-06-19 07:09:01 51°15.535 2°49.497 289.6 11.6 291 15.4
2006-06-19 07:09:06 51°15.541 2°49.474 290.2 11.6 291 15.4
2006-06-19 07:09:11 51°15.547 2°49.451 291.6 11.6 293 15.3
2006-06-19 07:09:16 51°15.554 2°49.427 292.1 11.6 293 15.3
2006-06-19 07:09:20 51°15.558 2°49.408 292.1 11.6 293 15.2
2006-06-19 07:09:26 51°15.566 2°49.379 291.7 11.6 292 15.1
2006-06-19 07:09:30 51°15.57 2°49.36 291.3 11.6 292 15
2006-06-19 07:09:36 51°15.578 2°49.331 290.7 11.6 291 14.8
2006-06-19 07:09:40 51°15.582 2°49.312 289.9 11.6 290 14.6
2006-06-19 07:09:46 51°15.589 2°49.283 289.6 11.6 290 14.5
2006-06-19 07:09:52 51°15.595 2°49.254 289.4 11.6 290 14.3
2006-06-19 07:09:57 51°15.601 2°49.23 289.7 11.6 291 14
2006-06-19 07:10:01 51°15.606 2°49.211 289.9 11.7 292 13.9
2006-06-19 07:10:06 51°15.612 2°49.188 290.9 11.7 293 13.7
2006-06-19 07:10:11 51°15.619 2°49.164 291.8 11.7 293 13.6
2006-06-19 07:10:16 51°15.625 2°49.14 292 11.7 293 13.4
2006-06-19 07:10:22 51°15.633 2°49.111 292.1 11.7 293 13.2
2006-06-19 07:10:26 51°15.638 2°49.092 292.1 11.7 293 13.2
2006-06-19 07:10:31 51°15.644 2°49.069 292.1 11.7 293 13.2
2006-06-19 07:10:36 51°15.651 2°49.045 292.3 11.7 293 13
2006-06-19 07:10:42 51°15.658 2°49.017 292.2 11.7 292 13
2006-06-19 07:10:46 51°15.663 2°48.998 291.9 11.7 292 13
2006-06-19 07:10:51 51°15.669 2°48.974 291.7 11.7 292 13
2006-06-19 07:10:56 51°15.675 2°48.95 291.3 11.6 292 13
2006-06-19 07:11:02 51°15.682 2°48.921 290.4 11.6 290 12.9
2006-06-19 07:11:06 51°15.686 2°48.902 289.6 11.6 289 12.9
2006-06-19 07:11:10 51°15.69 2°48.883 288.7 11.6 290 13
2006-06-19 07:11:16 51°15.697 2°48.854 289 11.6 290 13
2006-06-19 07:11:21 51°15.703 2°48.83 289.6 11.6 290 13
2006-06-19 07:11:26 51°15.708 2°48.806 289.9 11.7 291 13.1
2006-06-19 07:11:32 51°15.715 2°48.777 290.3 11.7 292 13.3
2006-06-19 07:11:36 51°15.72 2°48.758 291 11.7 293 13.3
2006-06-19 07:11:41 51°15.727 2°48.734 291.9 11.7 293 13.3
2006-06-19 07:11:46 51°15.733 2°48.71 292.3 11.7 293 13.4
2006-06-19 07:11:52 51°15.742 2°48.682 292.7 11.8 294 13.5
2006-06-19 07:11:56 51°15.747 2°48.663 293 11.8 293 13.5
2006-06-19 07:12:01 51°15.753 2°48.64 292.2 11.7 292 13.6
2006-06-19 07:12:06 51°15.759 2°48.616 291.6 11.7 292 13.8
2006-06-19 07:12:11 51°15.766 2°48.592 291.6 11.7 292 13.9
2006-06-19 07:12:16 51°15.771 2°48.567 291 11.6 291 14
2006-06-19 07:12:21 51°15.777 2°48.543 290.3 11.6 291 14
2006-06-19 07:12:26 51°15.783 2°48.519 289.9 11.6 291 14.1
2006-06-19 07:12:31 51°15.788 2°48.496 289.2 11.5 290 14.2
2006-06-19 07:12:36 51°15.794 2°48.472 288.8 11.5 290 14.4
2006-06-19 07:12:41 51°15.8 2°48.448 288.8 11.5 291 14.5
2006-06-19 07:12:45 51°15.804 2°48.429 289.3 11.6 292 14.6
2006-06-19 07:12:51 51°15.812 2°48.401 290.3 11.5 293 14.7
2006-06-19 07:12:56 51°15.818 2°48.378 291.2 11.5 294 14.9
2006-06-19 07:13:01 51°15.825 2°48.355 291.7 11.5 294 15.1
2006-06-19 07:13:06 51°15.832 2°48.332 292.4 11.5 295 15.2
2006-06-19 07:13:12 51°15.84 2°48.304 292.5 11.5 294 15.4
2006-06-19 07:13:16 51°15.845 2°48.286 292.5 11.5 294 15.6
2006-06-19 07:13:21 51°15.852 2°48.263 292.7 11.5 295 15.9
2006-06-19 07:13:26 51°15.858 2°48.239 292.8 11.5 294 16
2006-06-19 07:13:30 51°15.863 2°48.221 292.1 11.5 294 16
2006-06-19 07:13:36 51°15.871 2°48.193 291.6 11.5 293 16.3
2006-06-19 07:13:41 51°15.876 2°48.169 290.4 11.4 292 16.4
2006-06-19 07:13:46 51°15.882 2°48.146 290.3 11.4 292 16.6
2006-06-19 07:13:52 51°15.89 2°48.118 290 11.4 292 16.7
2006-06-19 07:13:56 51°15.894 2°48.099 289.8 11.4 291 16.6
2006-06-19 07:14:01 51°15.9 2°48.075 289.4 11.4 290 16.8
2006-06-19 07:14:06 51°15.905 2°48.052 288.8 11.4 290 16.9
2006-06-19 07:14:12 51°15.911 2°48.023 288.2 11.4 289 17
2006-06-19 07:14:16 51°15.916 2°48.004 288.3 11.5 291 17.1
2006-06-19 07:14:21 51°15.921 2°47.981 288.8 11.4 291 17.3
2006-06-19 07:14:25 51°15.926 2°47.962 289 11.4 291 17.5
2006-06-19 07:14:32 51°15.934 2°47.929 289.4 11.5 291 17.6
2006-06-19 07:14:36 51°15.939 2°47.91 290 11.5 292 17.6
2006-06-19 07:14:41 51°15.945 2°47.887 290.4 11.4 292 17.7
2006-06-19 07:14:46 51°15.952 2°47.864 290.5 11.4 293 17.7
2006-06-19 07:14:50 51°15.956 2°47.845 290.7 11.4 292 17.7
2006-06-19 07:14:56 51°15.963 2°47.817 290.3 11.5 292 17.8
2006-06-19 07:15:01 51°15.969 2°47.794 290.1 11.4 291 17.9
2006-06-19 07:15:06 51°15.975 2°47.77 289.4 11.4 291 17.9
2006-06-19 07:15:11 51°15.981 2°47.747 288.8 11.4 291 18
2006-06-19 07:15:16 51°15.986 2°47.723 288.8 11.4 291 18.1
2006-06-19 07:15:21 51°15.992 2°47.699 289 11.4 291 18.2
2006-06-19 07:15:26 51°15.998 2°47.676 289.6 11.5 292 18.1
2006-06-19 07:15:32 51°16.006 2°47.648 290.3 11.5 293 18.1
2006-06-19 07:15:36 51°16.011 2°47.629 290.9 11.5 293 18.1
2006-06-19 07:15:42 51°16.019 2°47.601 291.5 11.5 294 18.2
2006-06-19 07:15:46 51°16.024 2°47.583 291.9 11.5 294 18.3
2006-06-19 07:15:50 51°16.029 2°47.564 291.8 11.5 294 18.2
2006-06-19 07:15:56 51°16.036 2°47.536 291.6 11.5 293 18.2
2006-06-19 07:15:58 51°16.039 2°47.527 290.7 11.5 293 18.2
2006-06-19 07:16:06 51°16.048 2°47.489 290 11.5 291 18.2
2006-06-19 07:16:12 51°16.054 2°47.461 289.1 11.4 290 18.2
2006-06-19 07:16:16 51°16.059 2°47.442 288.2 11.4 290 18.2
2006-06-19 07:16:21 51°16.064 2°47.418 287.9 11.3 290 18.3
2006-06-19 07:16:26 51°16.069 2°47.395 287.8 11.4 289 18.3
2006-06-19 07:16:32 51°16.076 2°47.367 287.9 11.4 290 18.2
2006-06-19 07:16:36 51°16.08 2°47.348 288.5 11.4 290 18.2
2006-06-19 07:16:41 51°16.086 2°47.324 289.5 11.4 292 18.2
2006-06-19 07:16:46 51°16.092 2°47.301 290.3 11.4 292 18.2
2006-06-19 07:16:52 51°16.099 2°47.272 290.3 11.5 291 17.9
2006-06-19 07:16:56 51°16.105 2°47.254 290.5 11.6 293 17.9
2006-06-19 07:17:01 51°16.111 2°47.231 291.6 11.6 294 17.6
2006-06-19 07:17:06 51°16.118 2°47.207 292.1 11.5 294 17.4
2006-06-19 07:17:12 51°16.125 2°47.18 292.4 11.5 294 17.2
2006-06-19 07:17:16 51°16.131 2°47.161 292 11.5 293 17
2006-06-19 07:17:22 51°16.138 2°47.133 291.9 11.6 294 16.6
2006-06-19 07:17:26 51°16.144 2°47.114 291.9 11.5 294 16.5
2006-06-19 07:17:32 51°16.152 2°47.087 292 11.5 294 16.4
2006-06-19 07:17:36 51°16.157 2°47.068 291.6 11.5 293 16.4
2006-06-19 07:17:41 51°16.163 2°47.044 291 11.5 292 16.3
2006-06-19 07:17:46 51°16.168 2°47.021 290.3 11.5 292 16
2006-06-19 07:17:52 51°16.175 2°46.992 289.4 11.5 290 15.9
2006-06-19 07:17:56 51°16.179 2°46.973 288.8 11.5 290 15.9
2006-06-19 07:18:02 51°16.187 2°46.945 288.8 11.5 291 15.7
2006-06-19 07:18:06 51°16.192 2°46.926 289.3 11.5 293 15.7
2006-06-19 07:18:11 51°16.198 2°46.903 290 11.5 293 15.6
2006-06-19 07:18:16 51°16.205 2°46.879 290.5 11.6 294 15.4
2006-06-19 07:18:20 51°16.21 2°46.861 291.4 11.6 294 15.4
2006-06-19 07:18:26 51°16.218 2°46.833 291.7 11.6 295 15.1
2006-06-19 07:18:30 51°16.223 2°46.814 291.6 11.6 294 15
2006-06-19 07:18:36 51°16.231 2°46.786 291.5 11.6 294 14.8
2006-06-19 07:18:41 51°16.237 2°46.763 290.7 11.6 292 14.7
2006-06-19 07:18:46 51°16.243 2°46.739 289.6 11.5 291 14.4
2006-06-19 07:18:50 51°16.247 2°46.72 288.5 11.5 290 14
2006-06-19 07:18:56 51°16.254 2°46.691 287.4 11.5 289 13.5
2006-06-19 07:19:02 51°16.26 2°46.662 286.7 11.5 289 13.2
2006-06-19 07:19:06 51°16.264 2°46.643 286.3 11.5 289 13
2006-06-19 07:19:10 51°16.268 2°46.624 285.6 11.4 288 12.7
2006-06-19 07:19:16 51°16.273 2°46.595 284.8 11.4 286 12.6
2006-06-19 07:19:21 51°16.277 2°46.57 283.7 11.4 285 12.4
2006-06-19 07:19:26 51°16.281 2°46.546 283 11.4 285 12.5
2006-06-19 07:19:32 51°16.286 2°46.517 282.5 11.4 284 12.2
2006-06-19 07:19:36 51°16.289 2°46.497 282.4 11.5 285 12
2006-06-19 07:19:41 51°16.293 2°46.473 282.3 11.5 285 12
2006-06-19 07:19:46 51°16.297 2°46.448 282.8 11.5 286 11.9
2006-06-19 07:19:51 51°16.302 2°46.424 283 11.5 286 11.7
2006-06-19 07:19:56 51°16.306 2°46.399 283.4 11.5 286 11.3
2006-06-19 07:20:01 51°16.311 2°46.375 284.4 11.6 288 11.6
2006-06-19 07:20:06 51°16.316 2°46.351 285.5 11.5 288 11.3
2006-06-19 07:20:09 51°16.32 2°46.336 285.9 11.6 288 11.2
2006-06-19 07:20:16 51°16.326 2°46.302 285.9 11.6 287 11.7
2006-06-19 07:20:21 51°16.331 2°46.278 285.6 11.6 287 11.9
2006-06-19 07:20:26 51°16.336 2°46.253 285.4 11.6 286 11.8
2006-06-19 07:20:31 51°16.34 2°46.229 284.7 11.6 286 11.9
2006-06-19 07:20:36 51°16.344 2°46.204 284 11.6 285 11.8
2006-06-19 07:20:41 51°16.349 2°46.179 283.7 11.6 286 11.8
2006-06-19 07:20:46 51°16.353 2°46.154 283.7 11.6 286 11.8
2006-06-19 07:20:50 51°16.357 2°46.134 283.6 11.6 285 11.7
2006-06-19 07:20:56 51°16.361 2°46.105 282.7 11.5 284 11.7
2006-06-19 07:21:01 51°16.365 2°46.08 281.9 11.6 284 11.9
2006-06-19 07:21:06 51°16.369 2°46.055 282 11.6 284 11.8
2006-06-19 07:21:11 51°16.373 2°46.03 282.2 11.6 284 11.9
2006-06-19 07:21:16 51°16.377 2°46.005 282.3 11.6 285 12
2006-06-19 07:21:22 51°16.383 2°45.975 283.2 11.7 286 12.1
2006-06-19 07:21:26 51°16.386 2°45.956 284.2 11.7 286 12.2
2006-06-19 07:21:30 51°16.39 2°45.936 284.9 11.7 287 12.4
2006-06-19 07:21:36 51°16.396 2°45.906 285.2 11.7 287 12.4
2006-06-19 07:21:41 51°16.401 2°45.882 285.7 11.8 289 12.5
2006-06-19 07:21:46 51°16.407 2°45.857 286.5 11.8 288 12.3
2006-06-19 07:21:52 51°16.412 2°45.827 286.3 11.7 287 12.4
2006-06-19 07:21:56 51°16.416 2°45.807 285.4 11.8 287 12.7
2006-06-19 07:22:01 51°16.421 2°45.783 285.4 11.8 287 12.8
2006-06-19 07:22:06 51°16.426 2°45.758 285.2 11.7 287 13
2006-06-19 07:22:11 51°16.431 2°45.733 285.2 11.8 287 13
2006-06-19 07:22:16 51°16.435 2°45.708 284.9 11.7 286 13
2006-06-19 07:22:22 51°16.441 2°45.678 284.7 11.8 286 13
2006-06-19 07:22:26 51°16.444 2°45.658 284.3 11.7 285 13
2006-06-19 07:22:30 51°16.448 2°45.639 283.7 11.7 286 12.9
2006-06-19 07:22:36 51°16.453 2°45.609 283.6 11.7 285 13
2006-06-19 07:22:41 51°16.457 2°45.583 282.8 11.7 284 12.9
2006-06-19 07:22:46 51°16.461 2°45.558 282.8 11.7 285 12.9
2006-06-19 07:22:52 51°16.466 2°45.529 283 11.6 285 13
2006-06-19 07:22:56 51°16.469 2°45.509 283 11.7 285 13
2006-06-19 07:23:01 51°16.474 2°45.483 283.4 11.8 286 13.1
2006-06-19 07:23:06 51°16.479 2°45.459 284.2 11.8 286 13
2006-06-19 07:23:12 51°16.485 2°45.429 284.9 11.8 287 13.2
2006-06-19 07:23:16 51°16.488 2°45.409 285.4 11.8 287 13.3
2006-06-19 07:23:21 51°16.493 2°45.384 285.3 11.7 287 13.4
2006-06-19 07:23:26 51°16.498 2°45.359 285.2 11.8 287 13.6
2006-06-19 07:23:30 51°16.501 2°45.339 284.8 11.7 286 13.5
2006-06-19 07:23:36 51°16.507 2°45.309 284.2 11.7 286 14
2006-06-19 07:23:42 51°16.512 2°45.279 283.7 11.8 285 14
2006-06-19 07:23:46 51°16.515 2°45.259 283 11.8 284 14.3
2006-06-19 07:23:50 51°16.518 2°45.239 282.8 11.7 285 14.3
2006-06-19 07:23:57 51°16.524 2°45.204 283.3 11.8 287 14.2
2006-06-19 07:24:01 51°16.529 2°45.184 284.9 11.8 288 14.3
2006-06-19 07:24:06 51°16.534 2°45.16 286.6 11.8 290 14.3
2006-06-19 07:24:12 51°16.542 2°45.131 289.3 11.8 292 14.3
2006-06-19 07:24:16 51°16.548 2°45.112 291.1 11.9 294 14.2
2006-06-19 07:24:21 51°16.555 2°45.088 292.4 11.9 295 14.2
2006-06-19 07:24:26 51°16.562 2°45.064 293.3 11.9 295 14.7
2006-06-19 07:24:31 51°16.569 2°45.041 293.8 11.9 296 14
2006-06-19 07:24:36 51°16.576 2°45.017 293.8 11.9 296 14.2
2006-06-19 07:24:42 51°16.585 2°44.988 294.7 11.9 297 13.5
2006-06-19 07:24:46 51°16.591 2°44.97 295.1 11.9 297 13.8
2006-06-19 07:24:52 51°16.601 2°44.941 295.6 12 298 14
2006-06-19 07:24:56 51°16.607 2°44.922 295.9 12 297 13.7
2006-06-19 07:25:01 51°16.615 2°44.9 296 12 298 13.2
2006-06-19 07:25:06 51°16.623 2°44.876 296.7 12 299 13.7
2006-06-19 07:25:11 51°16.631 2°44.853 297.3 12 300 14.2
2006-06-19 07:25:16 51°16.64 2°44.83 297.8 12.1 300 14.3
2006-06-19 07:25:20 51°16.647 2°44.812 298.7 12.1 301 14.3
2006-06-19 07:25:26 51°16.657 2°44.784 298.8 12 301 14.4
2006-06-19 07:25:30 51°16.664 2°44.766 298.9 12.1 301 14.6
2006-06-19 07:25:36 51°16.674 2°44.738 299 12.1 301 14.7
2006-06-19 07:25:41 51°16.682 2°44.715 298.6 12.1 300 14.9
2006-06-19 07:25:46 51°16.691 2°44.692 298.3 12 300 15.2
2006-06-19 07:25:51 51°16.699 2°44.669 298.1 12.1 300 15.3
2006-06-19 07:25:56 51°16.708 2°44.646 297.9 12.1 300 15.2
2006-06-19 07:26:02 51°16.718 2°44.618 298 12.1 300 15.1
2006-06-19 07:26:06 51°16.724 2°44.6 297.7 12 300 15.3
2006-06-19 07:26:10 51°16.731 2°44.581 297.8 12 300 15.2
2006-06-19 07:26:16 51°16.741 2°44.553 297.7 12.1 300 15.3
2006-06-19 07:26:22 51°16.751 2°44.526 297.5 12 300 15.5
2006-06-19 07:26:26 51°16.757 2°44.507 297.5 12 300 15.6
2006-06-19 07:26:30 51°16.764 2°44.488 296.8 12 299 16
2006-06-19 07:26:36 51°16.773 2°44.461 296.8 12 299 16.3
2006-06-19 07:26:42 51°16.783 2°44.433 296.8 12 299 16.6
2006-06-19 07:26:46 51°16.79 2°44.414 296.9 12.1 300 16.8
2006-06-19 07:26:50 51°16.797 2°44.396 297.5 12.1 300 17
2006-06-19 07:26:56 51°16.807 2°44.368 298 12.1 301 17
2006-06-19 07:27:01 51°16.816 2°44.346 298.3 12.1 301 17.1
2006-06-19 07:27:06 51°16.825 2°44.323 298.7 12 302 17.2
2006-06-19 07:27:12 51°16.835 2°44.295 299.1 12.1 302 17.2
2006-06-19 07:27:16 51°16.842 2°44.277 299.6 12.1 302 17.3
2006-06-19 07:27:21 51°16.851 2°44.255 300.1 12.1 303 17.4
2006-06-19 07:27:27 51°16.862 2°44.228 300 12.1 302 17.5
2006-06-19 07:27:30 51°16.868 2°44.214 299.8 12 302 17.5
2006-06-19 07:27:36 51°16.878 2°44.187 299.6 12 302 17.6
2006-06-19 07:27:42 51°16.888 2°44.159 298.9 12 301 17.5
2006-06-19 07:27:46 51°16.895 2°44.141 298.4 12 301 17.6
2006-06-19 07:27:51 51°16.903 2°44.118 297.8 12 300 17.5
2006-06-19 07:27:56 51°16.912 2°44.095 297.7 12 300 17.5
2006-06-19 07:28:01 51°16.92 2°44.072 298 12 301 17.6
2006-06-19 07:28:06 51°16.929 2°44.049 298.7 12.1 301 17.6
2006-06-19 07:28:10 51°16.936 2°44.031 299 12 301 17.6
2006-06-19 07:28:16 51°16.947 2°44.004 299.5 12.1 302 17.8
2006-06-19 07:28:21 51°16.956 2°43.981 300.1 12.1 303 17.4
2006-06-19 07:28:25 51°16.963 2°43.963 300.4 12.1 303 17.3
2006-06-19 07:28:30 51°16.972 2°43.941 300.7 12.1 302 17.2
2006-06-19 07:28:36 51°16.983 2°43.914 300.4 12 302 17.2
2006-06-19 07:28:42 51°16.993 2°43.887 299.9 12 302 16.9
2006-06-19 07:28:46 51°17 2°43.868 299.9 12 302 16.9
2006-06-19 07:28:50 51°17.007 2°43.85 299.6 12.1 302 17.3
2006-06-19 07:28:56 51°17.018 2°43.823 299.5 12 301 17.3
2006-06-19 07:29:02 51°17.028 2°43.795 299 12 301 17
2006-06-19 07:29:06 51°17.035 2°43.777 298.6 12 300 16.9
2006-06-19 07:29:12 51°17.045 2°43.75 298.6 12.1 302 16.9
2006-06-19 07:29:16 51°17.053 2°43.732 299.7 12.1 303 16.8
2006-06-19 07:29:22 51°17.064 2°43.705 300.6 12.1 304 16.9
2006-06-19 07:29:26 51°17.072 2°43.687 301.6 12.2 304 16.7
2006-06-19 07:29:32 51°17.083 2°43.661 302.2 12.2 305 16.7
2006-06-19 07:29:36 51°17.091 2°43.644 303 12.2 306 17
2006-06-19 07:29:41 51°17.101 2°43.622 303.6 12.2 306 17
2006-06-19 07:29:46 51°17.112 2°43.6 304.2 12.3 307 17
2006-06-19 07:29:52 51°17.124 2°43.574 304.3 12.2 306 17.2
2006-06-19 07:29:56 51°17.131 2°43.557 304 12.2 305 16.9
2006-06-19 07:30:01 51°17.141 2°43.535 303.3 12.2 305 17
2006-06-19 07:30:06 51°17.15 2°43.512 302.5 12.1 305 17.2
2006-06-19 07:30:12 51°17.161 2°43.485 302 12.1 303 17.1
2006-06-19 07:30:16 51°17.168 2°43.467 301.3 12.1 303 17
2006-06-19 07:30:21 51°17.178 2°43.445 300.8 12.2 304 17.1
2006-06-19 07:30:26 51°17.187 2°43.423 301.6 12.2 305 16.8
2006-06-19 07:30:32 51°17.198 2°43.397 302.6 12.1 305 16.5
2006-06-19 07:30:36 51°17.205 2°43.38 303 12.1 306 16.2
2006-06-19 07:30:42 51°17.217 2°43.353 303.5 12.1 305 15.5
2006-06-19 07:30:47 51°17.227 2°43.332 303.8 12.1 306 15.1
2006-06-19 07:30:52 51°17.237 2°43.31 303.7 12 306 14.4
2006-06-19 07:30:56 51°17.245 2°43.293 303.7 12.1 306 13.6
2006-06-19 07:31:01 51°17.254 2°43.271 303 12 304 12.7
2006-06-19 07:31:05 51°17.262 2°43.254 302.6 11.9 304 14.7
2006-06-19 07:31:10 51°17.271 2°43.232 302.2 12 303 15
2006-06-19 07:31:16 51°17.282 2°43.205 301.3 12 303 14.4
2006-06-19 07:31:22 51°17.292 2°43.179 301.2 12 304 13.5
2006-06-19 07:31:26 51°17.3 2°43.162 301.8 12 305 12.2
2006-06-19 07:31:31 51°17.31 2°43.14 302.4 12 305 14.2
2006-06-19 07:31:36 51°17.32 2°43.119 302.7 12 306 15
2006-06-19 07:31:41 51°17.33 2°43.097 303 12.1 306 14.8
2006-06-19 07:31:46 51°17.34 2°43.075 303.4 12.1 306 14.3
2006-06-19 07:31:50 51°17.348 2°43.059 304.2 12.1 308 13.9
2006-06-19 07:31:56 51°17.361 2°43.033 304.2 12.1 307 13.4
2006-06-19 07:32:01 51°17.37 2°43.012 304.1 12 307 13
2006-06-19 07:32:05 51°17.378 2°42.994 303.9 12 306 12.4
2006-06-19 07:32:12 51°17.392 2°42.965 303.1 12 305 11.2
2006-06-19 07:32:16 51°17.4 2°42.948 302.6 11.9 306 12.7
2006-06-19 07:32:21 51°17.409 2°42.926 302.5 11.9 305 12.6
2006-06-19 07:32:26 51°17.418 2°42.904 301.7 11.9 305 12
2006-06-19 07:32:32 51°17.43 2°42.878 301.3 11.9 304 11.4
2006-06-19 07:32:36 51°17.437 2°42.861 300.9 11.9 304 13.2
2006-06-19 07:32:41 51°17.446 2°42.839 300.4 11.9 303 14
2006-06-19 07:32:46 51°17.455 2°42.817 300.2 11.9 304 14.7
2006-06-19 07:32:52 51°17.467 2°42.791 301.2 12 305 14.9
2006-06-19 07:32:56 51°17.475 2°42.774 301.5 12 306 14.9
2006-06-19 07:33:01 51°17.485 2°42.753 301.9 12 306 15.7
2006-06-19 07:33:06 51°17.495 2°42.731 302.6 12 307 16.6
2006-06-19 07:33:11 51°17.505 2°42.71 302.9 12.1 307 18.1
2006-06-19 07:33:16 51°17.515 2°42.689 303.4 12.1 308 20.2
2006-06-19 07:33:22 51°17.527 2°42.664 304 12.1 308 21.6
2006-06-19 07:33:26 51°17.535 2°42.646 303.6 12.1 307 22.7
2006-06-19 07:33:31 51°17.545 2°42.624 302.7 12 305 23.1
2006-06-19 07:33:36 51°17.554 2°42.602 301.4 12 304 23.3
2006-06-19 07:33:41 51°17.564 2°42.58 300.5 12.1 305 23.7
2006-06-19 07:33:46 51°17.573 2°42.558 301.2 12.1 306 23.9
2006-06-19 07:33:50 51°17.581 2°42.541 302.2 12.1 306 24.1
2006-06-19 07:33:56 51°17.594 2°42.516 303.1 12.1 307 24.3
2006-06-19 07:34:01 51°17.604 2°42.494 303.6 12.1 307 24.5
2006-06-19 07:34:06 51°17.614 2°42.473 303.8 12.1 307 25
2006-06-19 07:34:11 51°17.624 2°42.451 303.6 12.1 307 25.2
2006-06-19 07:34:16 51°17.634 2°42.43 303.3 12.1 306 24.8
2006-06-19 07:34:21 51°17.644 2°42.408 302.7 12.1 306 25.1
2006-06-19 07:34:26 51°17.653 2°42.386 302.3 12.1 306 25.2
2006-06-19 07:34:32 51°17.665 2°42.36 302.1 12.1 306 25.2
2006-06-19 07:34:36 51°17.673 2°42.343 302.2 12.1 306 25.2
2006-06-19 07:34:41 51°17.683 2°42.321 302.5 12.1 306 25.3
2006-06-19 07:34:46 51°17.692 2°42.3 302.4 12.1 305 25.4
2006-06-19 07:34:50 51°17.7 2°42.282 302.6 12 306 25.6
2006-06-19 07:34:56 51°17.712 2°42.257 302.8 12 306 25.6
2006-06-19 07:35:02 51°17.724 2°42.231 302.8 12.1 307 25.7
2006-06-19 07:35:06 51°17.732 2°42.213 303.3 12.1 307 25.7
2006-06-19 07:35:11 51°17.742 2°42.191 303.1 12.1 306 25.7
2006-06-19 07:35:16 51°17.751 2°42.169 302.9 12.1 305 25.8
2006-06-19 07:35:21 51°17.761 2°42.147 301.9 12.1 304 25.9
2006-06-19 07:35:26 51°17.77 2°42.125 301.6 12.1 305 25.8
2006-06-19 07:35:31 51°17.78 2°42.103 301.9 12.1 304 25.8
2006-06-19 07:35:36 51°17.79 2°42.081 301.9 12.1 305 25.8
2006-06-19 07:35:42 51°17.801 2°42.055 302.1 12.1 305 25.8
2006-06-19 07:35:46 51°17.809 2°42.037 302.3 12.1 305 26
2006-06-19 07:35:50 51°17.817 2°42.02 302.1 12.1 305 26.1
2006-06-19 07:35:56 51°17.828 2°41.993 301.9 12.1 304 26.2
2006-06-19 07:36:02 51°17.839 2°41.966 301.3 12.1 304 26.1
2006-06-19 07:36:06 51°17.847 2°41.948 301.4 12.1 304 26.2
2006-06-19 07:36:11 51°17.856 2°41.927 301.6 12.1 305 26.1
2006-06-19 07:36:16 51°17.866 2°41.904 302.2 12.1 306 26
2006-06-19 07:36:22 51°17.878 2°41.878 302.5 12.1 304 26
2006-06-19 07:36:26 51°17.885 2°41.86 302.5 12.1 305 26
2006-06-19 07:36:32 51°17.896 2°41.833 301.8 12.1 303 26
2006-06-19 07:36:36 51°17.904 2°41.815 301.2 12.1 303 26
2006-06-19 07:36:41 51°17.913 2°41.793 301 12.1 303 25.9
2006-06-19 07:36:46 51°17.922 2°41.771 300.7 12.1 303 25.8
2006-06-19 07:36:52 51°17.934 2°41.744 301.2 12.2 304 25.8
2006-06-19 07:36:56 51°17.941 2°41.726 301.6 12.1 305 25.7
2006-06-19 07:37:01 51°17.951 2°41.704 302.3 12.2 305 25.7
2006-06-19 07:37:06 51°17.961 2°41.682 302.6 12.2 305 25.4
2006-06-19 07:37:12 51°17.973 2°41.656 303.3 12.2 306 25.5
2006-06-19 07:37:17 51°17.983 2°41.634 303.6 12.1 306 25.2
2006-06-19 07:37:21 51°17.991 2°41.617 303.4 12.1 306 25.2
2006-06-19 07:37:26 51°18 2°41.595 303.7 12.1 306 25.2
2006-06-19 07:37:32 51°18.012 2°41.569 303.5 12.2 306 25.2
2006-06-19 07:37:36 51°18.02 2°41.551 303.2 12.2 305 25.1
2006-06-19 07:37:42 51°18.032 2°41.525 303.1 12.2 305 24.9
2006-06-19 07:37:46 51°18.039 2°41.507 302.8 12.2 305 24.9
2006-06-19 07:37:52 51°18.051 2°41.481 302.2 12.2 304 24.8
2006-06-19 07:37:56 51°18.058 2°41.463 302 12.2 305 23.8
2006-06-19 07:38:01 51°18.068 2°41.44 302 12.2 304 23.7
2006-06-19 07:38:06 51°18.078 2°41.419 301.9 12.2 305 24.2
2006-06-19 07:38:11 51°18.087 2°41.397 301.9 12.1 304 24.4
2006-06-19 07:38:16 51°18.097 2°41.375 301.9 12.1 305 24.2
2006-06-19 07:38:21 51°18.106 2°41.352 301.9 12.1 304 24
2006-06-19 07:38:26 51°18.116 2°41.33 301.6 12.1 305 23.8
2006-06-19 07:38:30 51°18.123 2°41.313 301.7 12.1 304 23.4
2006-06-19 07:38:36 51°18.134 2°41.286 301 12 303 23.5
2006-06-19 07:38:42 51°18.146 2°41.259 301.1 12.1 304 22.5
2006-06-19 07:38:46 51°18.153 2°41.242 301.2 12.1 304 20.3
2006-06-19 07:38:52 51°18.165 2°41.216 301.6 12 305 21.4
2006-06-19 07:38:56 51°18.172 2°41.198 302 12 306 22.3
2006-06-19 07:39:01 51°18.182 2°41.176 302.7 12 305 22.2
2006-06-19 07:39:06 51°18.192 2°41.155 302.7 12 305 22.3
2006-06-19 07:39:10 51°18.199 2°41.137 302.3 12 305 22.4
2006-06-19 07:39:16 51°18.21 2°41.111 301.6 12 304 22
2006-06-19 07:39:20 51°18.218 2°41.093 301.3 12 304 21.9
2006-06-19 07:39:26 51°18.229 2°41.066 301 11.9 303 21.4
2006-06-19 07:39:31 51°18.238 2°41.044 300.6 12 304 20.8
2006-06-19 07:39:36 51°18.247 2°41.023 301.2 11.9 304 20
2006-06-19 07:39:41 51°18.257 2°41.001 301.4 11.9 305 17.7
2006-06-19 07:39:46 51°18.266 2°40.979 301.7 11.9 304 18.6
2006-06-19 07:39:52 51°18.278 2°40.953 302.2 11.9 306 19.3
2006-06-19 07:39:57 51°18.287 2°40.932 302.3 11.9 305 18.8
2006-06-19 07:40:01 51°18.295 2°40.915 302.4 11.9 306 18.3
2006-06-19 07:40:06 51°18.304 2°40.893 302.7 11.9 305 18.4
2006-06-19 07:40:10 51°18.312 2°40.876 302.6 11.9 306 18.4
2006-06-19 07:40:17 51°18.325 2°40.846 302.7 11.9 305 17
2006-06-19 07:40:21 51°18.333 2°40.829 302.6 11.8 305 14.6
2006-06-19 07:40:26 51°18.342 2°40.808 302.2 11.8 305 17
2006-06-19 07:40:30 51°18.349 2°40.791 301.8 11.7 304 19
2006-06-19 07:40:36 51°18.36 2°40.764 301.6 11.8 302 19.9
2006-06-19 07:40:42 51°18.371 2°40.738 300.6 11.8 303 21.2
2006-06-19 07:40:46 51°18.378 2°40.72 300.9 11.8 303 21.7
2006-06-19 07:40:51 51°18.387 2°40.698 300.8 11.9 303 21.8
2006-06-19 07:40:56 51°18.396 2°40.676 301.2 12 304 21.7
2006-06-19 07:41:01 51°18.406 2°40.655 302.5 12 305 20.8
2006-06-19 07:41:06 51°18.416 2°40.634 303.7 12 307 17.4
2006-06-19 07:41:12 51°18.429 2°40.609 304.3 11.9 308 15.3
2006-06-19 07:41:16 51°18.437 2°40.592 304.7 11.9 308 17.4
2006-06-19 07:41:21 51°18.447 2°40.571 304.9 11.9 308 19.4
2006-06-19 07:41:26 51°18.456 2°40.55 304.5 12 307 20.7
2006-06-19 07:41:32 51°18.469 2°40.525 303.8 12 307 20.7
2006-06-19 07:41:36 51°18.476 2°40.508 303.6 11.9 307 18.3
2006-06-19 07:41:41 51°18.486 2°40.487 303.3 11.9 307 15.2
2006-06-19 07:41:46 51°18.496 2°40.466 302.8 11.9 307 15.7
2006-06-19 07:41:50 51°18.504 2°40.45 302.6 11.8 308 16.9
2006-06-19 07:41:56 51°18.516 2°40.425 302.6 11.8 308 17.1
2006-06-19 07:42:02 51°18.528 2°40.4 302.8 11.8 308 16
2006-06-19 07:42:06 51°18.537 2°40.384 302.8 11.8 309 14
2006-06-19 07:42:10 51°18.545 2°40.367 303 11.7 308 14.6
2006-06-19 07:42:16 51°18.557 2°40.343 303.2 11.7 309 18.3
2006-06-19 07:42:21 51°18.567 2°40.322 303.1 11.9 307 20
2006-06-19 07:42:26 51°18.577 2°40.301 302.8 11.9 307 22.9
2006-06-19 07:42:30 51°18.585 2°40.284 302.7 12 308 23.8
2006-06-19 07:42:37 51°18.6 2°40.255 302.8 12 309 24.2
2006-06-19 07:42:41 51°18.608 2°40.239 303.3 12.1 309 24.4
2006-06-19 07:42:46 51°18.618 2°40.218 303.7 12.1 309 24.5
2006-06-19 07:42:50 51°18.627 2°40.201 303.3 12.1 308 25.1
2006-06-19 07:42:56 51°18.639 2°40.175 302.7 12.1 308 25.4
2006-06-19 07:43:02 51°18.652 2°40.15 302.2 12.2 308 25.6
2006-06-19 07:43:06 51°18.66 2°40.133 302.1 12.1 308 25
2006-06-19 07:43:11 51°18.669 2°40.111 301.4 12 305 25.1
2006-06-19 07:43:16 51°18.678 2°40.089 299.5 11.9 303 26.4
2006-06-19 07:43:21 51°18.687 2°40.067 298.6 12 304 26.5
2006-06-19 07:43:26 51°18.697 2°40.045 299.1 12 305 26.4
2006-06-19 07:43:32 51°18.709 2°40.019 300.1 12.1 306 26.4
2006-06-19 07:43:36 51°18.717 2°40.002 301.2 12.1 308 26.5
2006-06-19 07:43:42 51°18.73 2°39.977 302.5 12.1 308 26.1
2006-06-19 07:43:46 51°18.738 2°39.96 302.4 12.2 307 26.2
2006-06-19 07:43:52 51°18.751 2°39.934 303 12.3 308 26.6
2006-06-19 07:43:56 51°18.759 2°39.917 303.3 12.2 308 26
2006-06-19 07:44:01 51°18.769 2°39.895 303.2 12.2 308 25.9
2006-06-19 07:44:06 51°18.779 2°39.874 302.7 12.2 307 25.6
2006-06-19 07:44:12 51°18.791 2°39.847 301.8 12.2 305 25.7
2006-06-19 07:44:16 51°18.799 2°39.83 301.4 12.2 306 26
2006-06-19 07:44:21 51°18.809 2°39.808 301.6 12.3 306 25.9
2006-06-19 07:44:26 51°18.819 2°39.786 301.9 12.3 306 26
2006-06-19 07:44:31 51°18.829 2°39.764 301.8 12.2 306 25.9
2006-06-19 07:44:36 51°18.839 2°39.742 301.6 12.2 306 25.9
2006-06-19 07:44:41 51°18.849 2°39.72 301.4 12.2 305 26
2006-06-19 07:44:46 51°18.858 2°39.698 301.2 12.3 305 26.2
2006-06-19 07:44:51 51°18.868 2°39.675 301.3 12.3 305 26.2
2006-06-19 07:44:56 51°18.878 2°39.653 301.5 12.3 305 26.2
2006-06-19 07:45:02 51°18.89 2°39.626 301.5 12.3 305 26.1
2006-06-19 07:45:06 51°18.898 2°39.609 301.6 12.3 305 26.2
2006-06-19 07:45:10 51°18.906 2°39.591 301.8 12.3 305 26.3
2006-06-19 07:45:16 51°18.917 2°39.564 301.9 12.3 305 26.4
2006-06-19 07:45:21 51°18.927 2°39.542 301.9 12.3 305 26.4
2006-06-19 07:45:26 51°18.937 2°39.519 302.2 12.3 306 26.6
2006-06-19 07:45:32 51°18.949 2°39.493 302.5 12.3 307 26.7
2006-06-19 07:45:36 51°18.957 2°39.476 303.1 12.3 306 26.9
2006-06-19 07:45:41 51°18.968 2°39.453 303.1 12.3 307 27.1
2006-06-19 07:45:46 51°18.978 2°39.432 303.2 12.4 307 27.3
2006-06-19 07:45:51 51°18.988 2°39.409 303.5 12.3 306 27.5
2006-06-19 07:45:56 51°18.998 2°39.387 303.2 12.3 306 27.6
2006-06-19 07:46:01 51°19.008 2°39.365 302.7 12.3 305 27.7
2006-06-19 07:46:06 51°19.017 2°39.343 301.9 12.3 304 27.9
2006-06-19 07:46:12 51°19.029 2°39.315 301.6 12.2 304 28
2006-06-19 07:46:16 51°19.036 2°39.297 301.2 12.2 303 28.2
2006-06-19 07:46:21 51°19.045 2°39.275 300.8 12.2 304 28.7
2006-06-19 07:46:26 51°19.055 2°39.252 301.2 12.2 304 28.5
2006-06-19 07:46:30 51°19.062 2°39.234 301.2 12.2 304 28.9
2006-06-19 07:46:36 51°19.074 2°39.208 301.8 12.3 305 28.8
2006-06-19 07:46:41 51°19.084 2°39.185 302.9 12.3 306 29
2006-06-19 07:46:46 51°19.094 2°39.163 303.1 12.3 305 28.9
2006-06-19 07:46:52 51°19.105 2°39.136 302.6 12.2 305 29.2
2006-06-19 07:46:57 51°19.115 2°39.114 302.4 12.2 304 29.3
2006-06-19 07:47:02 51°19.124 2°39.091 302.4 12.2 303 29.6
2006-06-19 07:47:05 51°19.129 2°39.078 301.9 12.2 303 29.8
2006-06-19 07:47:10 51°19.139 2°39.055 301.5 12.2 303 30
2006-06-19 07:47:16 51°19.15 2°39.028 301.3 12.2 303 29.9
2006-06-19 07:47:22 51°19.161 2°39.001 300.9 12.1 303 30.1
2006-06-19 07:47:26 51°19.168 2°38.983 301.4 12.1 304 30.2
2006-06-19 07:47:32 51°19.179 2°38.956 301.2 12.1 303 29.8
2006-06-19 07:47:36 51°19.186 2°38.938 301.8 12.2 304 30.1
2006-06-19 07:47:40 51°19.194 2°38.919 302.1 12.2 303 30
2006-06-19 07:47:46 51°19.205 2°38.893 302.6 12.2 305 29.8
2006-06-19 07:47:50 51°19.213 2°38.875 303 12.3 305 29.9
2006-06-19 07:47:57 51°19.227 2°38.844 303.7 12.3 307 29.9
2006-06-19 07:48:02 51°19.237 2°38.822 304.3 12.3 307 29.7
2006-06-19 07:48:06 51°19.246 2°38.805 305 12.4 307 29.7
2006-06-19 07:48:10 51°19.254 2°38.787 304.3 12.4 306 29.7
2006-06-19 07:48:16 51°19.266 2°38.76 303.9 12.4 306 29.8
2006-06-19 07:48:21 51°19.276 2°38.738 303.2 12.4 305 29.3
2006-06-19 07:48:26 51°19.286 2°38.715 303.3 12.5 306 29.3
2006-06-19 07:48:32 51°19.298 2°38.688 303.5 12.4 306 29.2
2006-06-19 07:48:36 51°19.306 2°38.67 303.5 12.5 306 29.3
2006-06-19 07:48:41 51°19.316 2°38.648 303.4 12.5 306 28.7
2006-06-19 07:48:46 51°19.326 2°38.625 303.4 12.5 306 28.7
2006-06-19 07:48:52 51°19.339 2°38.598 303.3 12.5 306 28.5
2006-06-19 07:48:56 51°19.347 2°38.58 303.1 12.5 305 28.3
2006-06-19 07:49:02 51°19.359 2°38.553 302.2 12.4 305 28
2006-06-19 07:49:06 51°19.366 2°38.535 301.7 12.4 305 28
2006-06-19 07:49:10 51°19.374 2°38.517 301.4 12.4 305 27.4
2006-06-19 07:49:16 51°19.386 2°38.49 301.6 12.4 305 27.4
2006-06-19 07:49:21 51°19.395 2°38.467 301.7 12.4 304 26.8
2006-06-19 07:49:26 51°19.405 2°38.444 301.4 12.4 303 26.4
2006-06-19 07:49:31 51°19.414 2°38.421 300.9 12.4 303 26
2006-06-19 07:49:36 51°19.424 2°38.399 301 12.3 304 25.9
2006-06-19 07:49:41 51°19.434 2°38.376 301.9 12.4 304 25.8
2006-06-19 07:49:46 51°19.443 2°38.353 302 12.3 304 25.6
2006-06-19 07:49:52 51°19.454 2°38.326 301.8 12.3 303 25.5
2006-06-19 07:49:56 51°19.462 2°38.308 302 12.3 304 25.2
2006-06-19 07:50:01 51°19.472 2°38.285 301.9 12.3 304 25.4
2006-06-19 07:50:06 51°19.481 2°38.263 301.9 12.3 304 24.7
2006-06-19 07:50:10 51°19.488 2°38.245 301.8 12.2 304 23.5
2006-06-19 07:50:16 51°19.5 2°38.218 301.6 12.2 304 23.2
2006-06-19 07:50:20 51°19.507 2°38.2 301.2 12.2 303 24
2006-06-19 07:50:26 51°19.518 2°38.173 301.5 12.3 304 24.4
2006-06-19 07:50:31 51°19.528 2°38.15 301.9 12.2 304 24.4
2006-06-19 07:50:36 51°19.537 2°38.128 301.8 12.2 304 24.5
2006-06-19 07:50:42 51°19.549 2°38.101 301.9 12.2 304 24.4
2006-06-19 07:50:46 51°19.557 2°38.084 302.7 12.2 306 23.7
2006-06-19 07:50:52 51°19.568 2°38.057 303.1 12.1 305 23
2006-06-19 07:50:56 51°19.576 2°38.04 303.2 12.2 306 23.9
2006-06-19 07:51:01 51°19.586 2°38.018 303.9 12.2 306 23.5
2006-06-19 07:51:06 51°19.597 2°37.997 304.4 12.2 307 23.5
2006-06-19 07:51:10 51°19.605 2°37.979 305.1 12.1 307 24
2006-06-19 07:51:17 51°19.619 2°37.949 305.4 12.2 306 23.3
2006-06-19 07:51:21 51°19.627 2°37.932 304.5 12.1 307 22.2
2006-06-19 07:51:26 51°19.637 2°37.911 304.6 12.1 307 22.5
2006-06-19 07:51:30 51°19.645 2°37.893 304.4 12.1 305 23.5
2006-06-19 07:51:36 51°19.657 2°37.867 303.9 12.1 306 23.9
2006-06-19 07:51:42 51°19.668 2°37.841 304.4 12 306 23.8
2006-06-19 07:51:46 51°19.676 2°37.824 304.5 12.1 306 24
2006-06-19 07:51:51 51°19.687 2°37.803 304.9 12.2 307 23.8
2006-06-19 07:51:56 51°19.697 2°37.782 305.5 12.2 307 23.4
2006-06-19 07:52:02 51°19.709 2°37.755 305.2 12.1 306 23.8
2006-06-19 07:52:06 51°19.717 2°37.738 304.9 12.1 306 23.9
2006-06-19 07:52:12 51°19.728 2°37.712 304.2 12.1 305 23.8
2006-06-19 07:52:16 51°19.736 2°37.695 303.5 12.2 306 24
2006-06-19 07:52:22 51°19.748 2°37.668 304.2 12.2 306 24
2006-06-19 07:52:26 51°19.756 2°37.651 304.6 12.2 307 23.5
2006-06-19 07:52:32 51°19.768 2°37.625 304.8 12.2 306 23.9
2006-06-19 07:52:36 51°19.776 2°37.608 304.7 12.1 307 23.7
2006-06-19 07:52:41 51°19.786 2°37.588 304.7 11.6 308 23.5
2006-06-19 07:52:46 51°19.796 2°37.569 304.9 11.3 308 23.4
2006-06-19 07:52:52 51°19.807 2°37.548 305.5 10.5 309 23.5
2006-06-19 07:52:56 51°19.813 2°37.534 305.7 10 310 23.7
2006-06-19 07:53:01 51°19.822 2°37.519 305.8 9.3 310 23.8
2006-06-19 07:53:06 51°19.83 2°37.505 305.6 8.8 311 23.8
2006-06-19 07:53:12 51°19.838 2°37.489 305.5 8.4 312 23.3
2006-06-19 07:53:16 51°19.844 2°37.479 305.2 7.7 311 23.6
2006-06-19 07:53:22 51°19.852 2°37.464 304.7 7.2 312 23.6
2006-06-19 07:53:26 51°19.857 2°37.455 303.6 6.9 311 23.4
2006-06-19 07:53:32 51°19.864 2°37.443 303.1 6.6 312 23.8
2006-06-19 07:53:36 51°19.868 2°37.435 302.6 6.2 312 23.3
2006-06-19 07:53:42 51°19.875 2°37.423 302.1 6.1 311 23.4
2006-06-19 07:53:46 51°19.879 2°37.415 301.7 5.8 311 23.1
2006-06-19 07:53:51 51°19.884 2°37.406 301.3 5.6 312 22.8
2006-06-19 07:53:56 51°19.89 2°37.397 301 5.5 313 22
2006-06-19 07:54:01 51°19.895 2°37.389 301.2 5.4 314 21.8
2006-06-19 07:54:06 51°19.9 2°37.381 301.4 5.3 315 22
2006-06-19 07:54:10 51°19.904 2°37.375 302.2 5.1 317 22.1
2006-06-19 07:54:16 51°19.91 2°37.366 303 4.9 319 22.5
2006-06-19 07:54:21 51°19.915 2°37.359 303.3 4.7 319 22.9
2006-06-19 07:54:26 51°19.92 2°37.352 303.3 4.6 319 22.7
2006-06-19 07:54:31 51°19.925 2°37.346 303.2 4.6 320 23.1
2006-06-19 07:54:36 51°19.929 2°37.339 302.9 4.5 319 23.2
2006-06-19 07:54:42 51°19.935 2°37.332 302.5 4.5 320 23.4
2006-06-19 07:54:46 51°19.939 2°37.326 302.6 4.4 319 23.5
2006-06-19 07:54:50 51°19.942 2°37.322 302.4 4.3 319 23.6
2006-06-19 07:54:56 51°19.948 2°37.314 302 4.3 318 23.7
2006-06-19 07:55:01 51°19.952 2°37.308 301.3 4.2 318 23.9
2006-06-19 07:55:06 51°19.956 2°37.302 300.6 4.1 317 24
2006-06-19 07:55:12 51°19.961 2°37.294 299.9 4.1 318 23.6
2006-06-19 07:55:16 51°19.965 2°37.29 299.6 4 319 23.9
2006-06-19 07:55:21 51°19.969 2°37.284 299.3 4 318 23.7
2006-06-19 07:55:26 51°19.973 2°37.278 299.5 4 320 23.6
2006-06-19 07:55:32 51°19.978 2°37.271 299.4 3.9 319 23.6
2006-06-19 07:55:36 51°19.981 2°37.267 299.2 3.9 319 23.6
2006-06-19 07:55:41 51°19.985 2°37.261 299 3.8 318 23.5
2006-06-19 07:55:46 51°19.989 2°37.256 298.4 3.8 317 23.9
2006-06-19 07:55:52 51°19.993 2°37.249 297.6 3.6 316 23.8
2006-06-19 07:55:57 51°19.997 2°37.244 297.2 3.7 317 23.7
2006-06-19 07:56:02 51°20 2°37.238 296.6 3.6 316 23.8
2006-06-19 07:56:06 51°20.003 2°37.234 296.5 3.6 317 24
2006-06-19 07:56:11 51°20.007 2°37.228 296.2 3.6 317 23.9
2006-06-19 07:56:17 51°20.011 2°37.222 296.3 3.5 317 23.6
2006-06-19 07:56:22 51°20.015 2°37.217 296.7 3.6 318 23.3
2006-06-19 07:56:26 51°20.018 2°37.212 296.8 3.6 319 23.3
2006-06-19 07:56:32 51°20.022 2°37.206 297.4 3.6 319 23.3
2006-06-19 07:56:36 51°20.026 2°37.202 297.8 3.7 319 23.4
2006-06-19 07:56:42 51°20.03 2°37.196 298.2 3.6 318 23.3
2006-06-19 07:56:47 51°20.034 2°37.19 298.3 3.6 318 23.3
2006-06-19 07:56:52 51°20.037 2°37.185 297.9 3.6 317 23.4
2006-06-19 07:56:56 51°20.04 2°37.18 297.4 3.5 316 23.5
2006-06-19 07:57:02 51°20.044 2°37.173 296.2 3.6 313 23.8
2006-06-19 07:57:07 51°20.048 2°37.167 294.6 3.7 313 24
2006-06-19 07:57:12 51°20.051 2°37.16 293.2 3.8 309 23.9
2006-06-19 07:57:16 51°20.053 2°37.155 291 3.9 308 23.6
2006-06-19 07:57:22 51°20.057 2°37.146 289.5 3.9 304 23.7
2006-06-19 07:57:26 51°20.059 2°37.14 287.5 3.9 303 23.9
2006-06-19 07:57:32 51°20.062 2°37.131 285.2 3.9 299 23.3
2006-06-19 07:57:36 51°20.064 2°37.125 282.9 3.9 296 23.7
2006-06-19 07:57:42 51°20.067 2°37.115 280.1 3.9 292 23.7
2006-06-19 07:57:46 51°20.068 2°37.108 277.5 3.9 291 23.4
2006-06-19 07:57:52 51°20.07 2°37.098 275.8 4 290 23.8
2006-06-19 07:57:56 51°20.072 2°37.091 275.1 4 289 23.4
2006-06-19 07:58:02 51°20.074 2°37.081 274.7 4 287 23.1
2006-06-19 07:58:06 51°20.075 2°37.074 274.1 4.1 286 23.1
2006-06-19 07:58:11 51°20.076 2°37.065 273.5 4.2 285 22.6
2006-06-19 07:58:16 51°20.078 2°37.056 272.3 4.2 285 22.4
2006-06-19 07:58:21 51°20.079 2°37.047 271.3 4.2 283 22
2006-06-19 07:58:26 51°20.08 2°37.038 270.5 4.2 282 21.5
2006-06-19 07:58:32 51°20.082 2°37.027 269.4 4.1 280 21.7
2006-06-19 07:58:36 51°20.082 2°37.02 268.3 4.2 279 22.8
2006-06-19 07:58:42 51°20.083 2°37.009 266.5 4.1 277 22.8
2006-06-19 07:58:46 51°20.083 2°37.002 264.9 4.1 274 22.6
2006-06-19 07:58:52 51°20.083 2°36.991 263 4 272 22.2
2006-06-19 07:58:56 51°20.083 2°36.984 261.3 4 270 22.8
2006-06-19 07:59:02 51°20.083 2°36.974 259.5 3.9 267 24
2006-06-19 07:59:06 51°20.082 2°36.967 257.6 3.9 265 24.9
2006-06-19 07:59:12 51°20.081 2°36.958 255.2 3.5 262 25.3
2006-06-19 07:59:16 51°20.081 2°36.952 253.1 3.2 262 25.6
2006-06-19 07:59:21 51°20.08 2°36.947 251.3 2.4 263 25.5
2006-06-19 07:59:26 51°20.081 2°36.944 250.4 1.6 269 25.8
2006-06-19 07:59:32 51°20.081 2°36.942 250.5 0.9 290 26
2006-06-19 07:59:36 51°20.082 2°36.942 251.3 0.6 344 26.1
2006-06-19 07:59:41 51°20.083 2°36.943 251.5 0.9 26 26.2
2006-06-19 07:59:46 51°20.085 2°36.946 251.9 1.2 39 25.8
2006-06-19 07:59:52 51°20.087 2°36.95 252.9 1.8 49 25.3
2006-06-19 07:59:56 51°20.088 2°36.952 254.7 1.8 47 25.6
2006-06-19 08:00:01 51°20.09 2°36.955 256.7 1.8 48 25.9
2006-06-19 08:00:06 51°20.091 2°36.958 258.8 1.8 47 25.7